Location: Banios
(43.0451°N, 0.2335°E)
Time: 19:25:45
(UTC+00:00)

Tiangong - Visible Passes

Search period start: 24 September 2021 00:00
Search period end: 04 October 2021 00:00
Orbit: 382 x 385 km, 41.5° (Epoch: 24 September)

Date Brightness Start Highest point End Pass type
(mag) Time Alt. Az. Time Alt. Az. Time Alt. Az.
25 Sep 3.6 04:58:09 10° S 05:00:10 16° SSE 05:02:11 10° ESE visible
27 Sep 2.9 04:35:20 16° SSW 04:36:58 24° SSE 04:39:36 10° E visible
28 Sep 3.9 03:38:26 13° SE 03:38:26 13° SE 03:39:17 10° ESE visible
28 Sep 1.7 05:10:38 10° WSW 05:13:38 48° SSE 05:16:43 10° E visible
29 Sep 2.1 04:13:41 35° SSE 04:13:49 35° SSE 04:16:45 10° E visible
30 Sep 1.3 04:48:53 24° WSW 04:50:34 60° S 04:53:42 10° E visible
01 Oct 2.8 03:51:51 30° ESE 03:51:51 30° ESE 03:53:45 10° E visible
01 Oct 1.3 05:24:14 10° W 05:27:22 64° S 05:30:31 10° ESE visible
02 Oct 1.1 04:27:01 56° SW 04:27:28 66° S 04:30:37 10° E visible
03 Oct 4.1 03:30:00 15° E 03:30:00 15° E 03:30:42 10° E visible
03 Oct 1.4 05:02:12 19° W 05:04:17 55° S 05:07:23 10° ESE visible
